Location: Fort Worth, Tx
(32.7431°N, 97.3695°W)
Time: 20:03:30
(UTC-04:00)

Vanguard 1 Rocket - Pass Details

Date: 19 September 2024
Orbit: 650 x 4218 km, 34.3° (Epoch: 11 October)

Event Time Altitude Azimuth Distance (km) Brightness Sun altitude
Exits shadow 03:57:44 48° 107° (ESE) 2,955 9.8 -49.3°
Drops below altitude 10° 04:12:07 10° 74° (ENE) 6,457 12.1 -47.4°
Sets 04:18:19 0° 71° (ENE) 7,917 12.8 -46.5°
